• In Schweiz
  • Länderverzeichnis
  • Für 7 Tage
  • Wassertemperatur
  • Satellitenkarten
  • Wetterkarte
  • Widgets
  • user-avatar
    Anmelden

    Stündliche Wetter Zabudenovskiy

    Heute, 24 Mai, Donnerstag

    Zeit Temperatur Niederschläge Wind Luftdruck Luftfeuchtigkeit
    00:00 +22°C° 0 mm 1 m/S 760 mmHg 86%
    01:00 +21°C° 0,1 mm 1 m/S 759 mmHg 86%
    02:00 +21°C° 0,1 mm 1 m/S 759 mmHg 87%
    03:00 +21°C° 0,1 mm 1 m/S 759 mmHg 87%
    04:00 +21°C° 0,1 mm 1 m/S 759 mmHg 88%
    05:00 +21°C° 0,1 mm 1 m/S 759 mmHg 89%
    06:00 +21°C° 0,1 mm 1 m/S 759 mmHg 90%
    07:00 +22°C° 0,1 mm 1 m/S 758 mmHg 84%
    08:00 +24°C° 0,1 mm 1 m/S 758 mmHg 79%
    09:00 +25°C° 0,1 mm 1 m/S 758 mmHg 74%
    10:00 +26°C° 0 mm 2 m/S 758 mmHg 68%
    11:00 +27°C° 0 mm 2 m/S 758 mmHg 62%
    12:00 +28°C° 0 mm 2 m/S 758 mmHg 57%
    13:00 +28°C° 0,1 mm 2 m/S 758 mmHg 57%
    14:00 +28°C° 0,1 mm 2 m/S 757 mmHg 58%
    15:00 +28°C° 0,1 mm 2 m/S 757 mmHg 58%
    16:00 +28°C° 0,5 mm 2 m/S 757 mmHg 62%
    17:00 +27°C° 0,5 mm 2 m/S 757 mmHg 66%
    18:00 +27°C° 0,5 mm 2 m/S 756 mmHg 70%
    19:00 +26°C° 0 mm 2 m/S 756 mmHg 74%
    20:00 +24°C° 0 mm 2 m/S 757 mmHg 78%
    21:00 +23°C° 0 mm 2 m/S 757 mmHg 82%
    22:00 +21°C° 0 mm 2 m/S 757 mmHg 84%
    23:00 +21°C° 0 mm 2 m/S 756 mmHg 86%

    Morgen, 25 Mai, Freitag

    Zeit Temperatur Niederschläge Wind Luftdruck Luftfeuchtigkeit
    00:00 +20°C° 0 mm 2 m/S 756 mmHg 88%
    01:00 +21°C° 0 mm 1 m/S 756 mmHg 89%
    02:00 +21°C° 0 mm 1 m/S 756 mmHg 91%
    03:00 +20°C° 0 mm 1 m/S 756 mmHg 92%
    04:00 +20°C° 0,1 mm 1 m/S 756 mmHg 91%
    05:00 +21°C° 0,1 mm 1 m/S 756 mmHg 90%
    06:00 +21°C° 0,1 mm 1 m/S 756 mmHg 89%
    07:00 +22°C° 0,1 mm 1 m/S 756 mmHg 84%
    08:00 +24°C° 0,1 mm 2 m/S 756 mmHg 79%
    09:00 +25°C° 0,1 mm 2 m/S 757 mmHg 74%
    10:00 +26°C° 0,9 mm 2 m/S 757 mmHg 70%
    11:00 +27°C° 0,9 mm 2 m/S 757 mmHg 66%
    12:00 +28°C° 0,9 mm 3 m/S 756 mmHg 63%
    13:00 +28°C° 0,7 mm 3 m/S 756 mmHg 62%
    14:00 +28°C° 0,7 mm 3 m/S 756 mmHg 61%
    15:00 +29°C° 0,7 mm 3 m/S 756 mmHg 60%
    16:00 +28°C° 0,4 mm 3 m/S 756 mmHg 63%
    17:00 +28°C° 0,4 mm 3 m/S 756 mmHg 67%
    18:00 +27°C° 0,4 mm 3 m/S 756 mmHg 70%
    19:00 +26°C° 0,2 mm 3 m/S 756 mmHg 75%
    20:00 +24°C° 0,2 mm 3 m/S 757 mmHg 80%
    21:00 +22°C° 0,2 mm 3 m/S 757 mmHg 85%
    22:00 +21°C° 0 mm 4 m/S 757 mmHg 86%
    23:00 +21°C° 0 mm 4 m/S 758 mmHg 88%

    übermorgen, 26 Mai, Samstag

    Zeit Temperatur Niederschläge Wind Luftdruck Luftfeuchtigkeit
    00:00 +20°C° 0 mm 4 m/S 758 mmHg 89%
    01:00 +20°C° 0,2 mm 5 m/S 758 mmHg 89%
    02:00 +20°C° 0,2 mm 6 m/S 759 mmHg 89%
    03:00 +18°C° 0,2 mm 7 m/S 759 mmHg 89%
    04:00 +17°C° 0 mm 8 m/S 760 mmHg 87%
    05:00 +16°C° 0 mm 8 m/S 761 mmHg 84%
    06:00 +15°C° 0 mm 8 m/S 761 mmHg 81%
    07:00 +16°C° 0 mm 8 m/S 762 mmHg 77%
    08:00 +16°C° 0 mm 9 m/S 762 mmHg 72%
    09:00 +17°C° 0 mm 9 m/S 763 mmHg 68%
    10:00 +18°C° 0 mm 9 m/S 763 mmHg 64%
    11:00 +19°C° 0 mm 9 m/S 764 mmHg 61%
    12:00 +21°C° 0 mm 9 m/S 764 mmHg 58%
    13:00 +21°C° 0 mm 9 m/S 764 mmHg 56%
    14:00 +21°C° 0 mm 9 m/S 764 mmHg 54%
    15:00 +22°C° 0 mm 9 m/S 765 mmHg 52%
    16:00 +21°C° 0 mm 9 m/S 765 mmHg 53%
    17:00 +20°C° 0 mm 8 m/S 765 mmHg 54%
    18:00 +20°C° 0 mm 7 m/S 765 mmHg 56%
    19:00 +18°C° 0 mm 8 m/S 766 mmHg 54%
    20:00 +17°C° 0 mm 8 m/S 766 mmHg 51%
    21:00 +16°C° 0 mm 8 m/S 767 mmHg 49%
    22:00 +15°C° 0 mm 8 m/S 767 mmHg 49%
    23:00 +15°C° 0 mm 8 m/S 767 mmHg 48%

    27 Mai, Sonntag

    Zeit Temperatur Niederschläge Wind Luftdruck Luftfeuchtigkeit
    00:00 +13°C° 0 mm 8 m/S 767 mmHg 47%
    01:00 +13°C° 0 mm 8 m/S 767 mmHg 48%
    02:00 +12°C° 0 mm 8 m/S 767 mmHg 48%
    03:00 +12°C° 0 mm 8 m/S 767 mmHg 48%
    04:00 +11°C° 0 mm 7 m/S 767 mmHg 52%
    05:00 +11°C° 0 mm 7 m/S 768 mmHg 55%
    06:00 +10°C° 0 mm 7 m/S 768 mmHg 59%
    07:00 +12°C° 0 mm 7 m/S 768 mmHg 58%
    08:00 +13°C° 0 mm 8 m/S 768 mmHg 56%
    09:00 +16°C° 0 mm 8 m/S 768 mmHg 55%
    10:00 +17°C° 0 mm 8 m/S 768 mmHg 54%
    11:00 +18°C° 0 mm 8 m/S 767 mmHg 52%
    12:00 +21°C° 0 mm 8 m/S 767 mmHg 50%
    13:00 +21°C° 0 mm 8 m/S 767 mmHg 50%
    14:00 +22°C° 0 mm 8 m/S 766 mmHg 49%
    15:00 +22°C° 0 mm 7 m/S 766 mmHg 49%
    16:00 +22°C° 0 mm 6 m/S 766 mmHg 52%
    17:00 +22°C° 0 mm 6 m/S 765 mmHg 55%
    18:00 +21°C° 0 mm 5 m/S 765 mmHg 59%
    19:00 +20°C° 0 mm 5 m/S 765 mmHg 58%
    20:00 +19°C° 0 mm 5 m/S 765 mmHg 58%
    21:00 +17°C° 0 mm 5 m/S 765 mmHg 58%
    22:00 +18°C° 0 mm 4 m/S 765 mmHg 57%
    23:00 +17°C° 0 mm 4 m/S 765 mmHg 56%

    28 Mai, Montag

    Zeit Temperatur Niederschläge Wind Luftdruck Luftfeuchtigkeit
    00:00 +17°C° 0 mm 4 m/S 764 mmHg 55%
    01:00 +15°C° 0 mm 4 m/S 764 mmHg 54%
    02:00 +15°C° 0 mm 4 m/S 764 mmHg 54%
    03:00 +14°C° 0 mm 4 m/S 764 mmHg 53%
    04:00 +14°C° 0 mm 4 m/S 764 mmHg 55%
    05:00 +14°C° 0 mm 4 m/S 764 mmHg 56%
    06:00 +13°C° 0 mm 5 m/S 764 mmHg 58%
    07:00 +14°C° 0 mm 5 m/S 764 mmHg 57%
    08:00 +15°C° 0 mm 5 m/S 764 mmHg 57%
    09:00 +16°C° 0 mm 5 m/S 764 mmHg 56%
    10:00 +17°C° 0 mm 6 m/S 764 mmHg 54%
    11:00 +20°C° 0 mm 6 m/S 764 mmHg 51%
    12:00 +21°C° 0 mm 6 m/S 764 mmHg 49%
    13:00 +22°C° 0 mm 6 m/S 764 mmHg 48%
    14:00 +22°C° 0 mm 6 m/S 764 mmHg 46%
    15:00 +23°C° 0 mm 7 m/S 763 mmHg 45%
    16:00 +22°C° 0 mm 6 m/S 764 mmHg 47%
    17:00 +21°C° 0 mm 6 m/S 764 mmHg 49%
    18:00 +21°C° 0 mm 5 m/S 764 mmHg 51%
    19:00 +19°C° 0 mm 5 m/S 764 mmHg 51%
    20:00 +17°C° 0 mm 5 m/S 764 mmHg 51%
    21:00 +16°C° 0 mm 5 m/S 764 mmHg 50%
    22:00 +15°C° 0 mm 5 m/S 765 mmHg 52%
    23:00 +15°C° 0 mm 5 m/S 765 mmHg 54%

    29 Mai, Dienstag

    Zeit Temperatur Niederschläge Wind Luftdruck Luftfeuchtigkeit
    00:00 +15°C° 0 mm 5 m/S 765 mmHg 55%
    01:00 +15°C° 0 mm 5 m/S 765 mmHg 60%
    02:00 +14°C° 0 mm 5 m/S 765 mmHg 64%
    03:00 +14°C° 0 mm 5 m/S 765 mmHg 68%
    04:00 +14°C° 0 mm 5 m/S 765 mmHg 72%
    05:00 +14°C° 0 mm 6 m/S 765 mmHg 76%
    06:00 +14°C° 0 mm 6 m/S 766 mmHg 80%
    07:00 +16°C° 0 mm 6 m/S 766 mmHg 76%
    08:00 +17°C° 0 mm 6 m/S 766 mmHg 72%
    09:00 +20°C° 0 mm 7 m/S 766 mmHg 68%
    10:00 +21°C° 0 mm 7 m/S 766 mmHg 62%
    11:00 +22°C° 0 mm 7 m/S 766 mmHg 56%
    12:00 +23°C° 0 mm 7 m/S 766 mmHg 51%
    13:00 +23°C° 0 mm 7 m/S 766 mmHg 49%
    14:00 +23°C° 0 mm 7 m/S 765 mmHg 48%
    15:00 +23°C° 0 mm 7 m/S 765 mmHg 46%
    16:00 +23°C° 0 mm 6 m/S 765 mmHg 50%
    17:00 +23°C° 0 mm 5 m/S 765 mmHg 53%
    18:00 +22°C° 0 mm 4 m/S 765 mmHg 57%
    19:00 +21°C° 0 mm 4 m/S 765 mmHg 60%
    20:00 +19°C° 0 mm 4 m/S 765 mmHg 63%
    21:00 +18°C° 0 mm 4 m/S 766 mmHg 66%
    22:00 +17°C° 0 mm 4 m/S 766 mmHg 66%
    23:00 +15°C° 0 mm 4 m/S 766 mmHg 67%
    Mehr zeigen